Regional Weather Roundup
Issued by NWS

Home | Current Version | Previous Version | Text Only | Print | Product List | Glossary Off
Versions: 1 2 3 4 5 6 7 8 9 10 11 12 13 14 15 16 17 18 19 20 21 22 23 24 25 26 27 28 29 30 31 32 33 34 35 36 37 38 39 40 41 42 43 44 45 46 47 48 49 50

000
ASUS43 KMPX 261410
RWRMN
WEATHER ROUNDUP FOR MINNESOTA
NATIONAL WEATHER SERVICE TWIN CITIES/CHANHASSEN MN
900 AM CDT SAT JUL 26 2014


NOTE: "FAIR" INDICATES FEW OR NO CLOUDS BELOW 12,000 FEET WITH NO
SIGNIFICANT WEATHER AND/OR OBSTRUCTIONS TO VISIBILITY. N/A MEANS
CURRENT SKY AND/OR WEATHER CONDITIONS ARE NOT AVAILABLE.

MNZ060>063-068>070-261500-
   Twin Cities Metro

CITY           SKY/WX    TMP DP  RH WIND       PRES   REMARKS
TWIN CITIES    PTSUNNY   76  67  73 CALM      29.83S
ST PAUL        PTSUNNY   76  67  73 CALM      29.82F
CRYSTAL        PTSUNNY   76  63  64 S5        29.82S
BLAINE         MOSUNNY   75  66  73 NE3       29.81F
LAKEVILLE      PTSUNNY   72  70  94 CALM      29.83F
EDEN PRAIRIE   PTSUNNY   76  69  79 CALM      29.81F
SOUTH ST PAUL  PTSUNNY   75  69  80 W5        29.82S
LAKE ELMO      FAIR      73  68  83 NE5       29.82F
$$
MNZ001>005-007-008-013>017-022>024-027-028-261500-
   Northwest Minnesota

CITY           SKY/WX    TMP DP  RH WIND       PRES   REMARKS
BEMIDJI        MOSUNNY   67  56  67 CALM      29.80S
HALLOCK        SUNNY     70  57  64 SW13      29.70S
ROSEAU         SUNNY     72  61  68 S8        29.73F
WARROAD        SUNNY     66  61  82 S3        29.75S
THIEF RVR FALL MOSUNNY   68  57  68 SW13      29.77S
CROOKSTON      SUNNY     66  59  77 SW9       29.77S
FOSSTON        SUNNY     66  59  77 S5        29.79S
DETROIT LAKES  SUNNY     70  61  73 SW8       29.82R
MOORHEAD       SUNNY     68  63  83 SW12      29.80S
PARK RAPIDS    SUNNY     69  57  65 CALM      29.79F
$$
MNZ006-009>011-018-025>026-261500-
   North Central Minnesota

CITY           SKY/WX    TMP DP  RH WIND       PRES   REMARKS
BAUDETTE       SUNNY     68  56  65 CALM      29.77S
FLAG ISLAND    SUNNY     70  57  64 CALM      29.73S
INTL FALLS     SUNNY     66  59  78 W6        29.77S
WASKISH        SUNNY     70  61  73 CALM      29.79S
BIG FORK       SUNNY     70  59  68 SW2       29.81S
LONGVILLE      SUNNY     66  61  82 CALM      29.81F
GRAND RAPIDS   SUNNY     70  57  64 W3        29.82S
CRANE LAKE     SUNNY     66  57  72 CALM      29.79R
ORR            SUNNY     68  55  64 W3        29.77S
COOK           SUNNY     66  57  72 W8        29.80S
$$
MNZ012-019>021-037-261500-
   Northeast Minnesota

CITY           SKY/WX    TMP DP  RH WIND       PRES   REMARKS
DULUTH         SUNNY     72  58  61 W9        29.81R
ELY            SUNNY     68  57  68 W8        29.79R
HIBBING        SUNNY     72  56  57 W7        29.81S
EVELETH        SUNNY     70  57  64 W5        29.82S
DULUTH HARBOR  SUNNY     73  63  68 W9        29.79S
TWO HARBORS    SUNNY     72  59  64 NW6       29.77S
SILVER BAY     SUNNY     72  63  73 W6        29.76R
GRAND MARAIS     N/A     53  52  96 SW6       29.72R
G MARAIS ARPRT SUNNY     70  57  64 W7        29.76S
$$
MNZ029>031-032-039>041-046>048-054>057-064-261500-
   West Central Minnesota

CITY           SKY/WX    TMP DP  RH WIND       PRES   REMARKS
FERGUS FALLS   SUNNY     70  59  68 SW5       29.83R
WHEATON        SUNNY     66  64  94 S5        29.83S
MORRIS         MOSUNNY   72  66  83 SE3       29.81F
ALEXANDRIA     SUNNY     71  61  70 SW6       29.84S
ELBOW LAKE     FAIR      68  62  81 S7        29.82F
WADENA         SUNNY     70  61  73 CALM      29.80R
GLENWOOD       SUNNY     72  63  73 SE3       29.84F
APPLETON       PTSUNNY   72  66  83 SE3       29.82F
BENSON         MOSUNNY   70  66  88 S3        29.82F
ORTONVILLE     PTSUNNY   68  66  94 E5        29.82S FOG
MADISON        PTSUNNY   72  70  94 S5        29.83F FOG
WILLMAR        FAIR      70  66  88 CALM      29.85R
$$
MNZ033>034-036-042>043-049>051-058-059-261500-
   Central Minnesota

CITY           SKY/WX    TMP DP  RH WIND       PRES   REMARKS
ST CLOUD       MOSUNNY   73  62  68 SW10      29.82R
SAUK CENTRE    FAIR      69  62  77 SE5       29.84R
PAYNESVILLE    SUNNY     69  61  76 CALM      29.84S
AITKIN         SUNNY     73  63  68 CALM      29.81F
PINE RIVER     SUNNY     68  59  73 E3        29.84F
BRAINERD       SUNNY     70  61  73 VRB3      29.81F
STAPLES        SUNNY     68  57  68 E3        29.79F
LONG PRAIRIE   FAIR      68  59  73 S8        29.84R
LITTLE FALLS   MOSUNNY   70  59  68 S8        29.81R
LITCHFIELD     MOSUNNY   73  66  78 E3        29.85R
BUFFALO        PTSUNNY   71  62  72 CALM      29.84F
MAPLE LAKE     PTSUNNY   73  65  76 CALM      29.84F
$$
MNZ037-044-045-052-053-261500-
   East Central Minnesota

CITY           SKY/WX    TMP DP  RH WIND       PRES   REMARKS
PRINCETON      MOSUNNY   75  61  60 NE3       29.81S
MORA           SUNNY     70  59  68 CALM      29.83F
CAMBRIDGE      SUNNY     75  61  60 NE6       29.78F
RUSH CITY      SUNNY     72  64  74 CALM      29.83F
MOOSE LAKE     SUNNY     72  61  68 CALM      29.81S
HINCKLEY       FAIR      72  63  73 CALM      29.82F
CLOQUET        SUNNY     72  55  56 W7        29.82S
MCGREGOR       SUNNY     70  61  73 W5        29.83S
$$
MNZ071>073-080-081-089-090-097-098-261500-
   Southwest Minnesota

CITY           SKY/WX    TMP DP  RH WIND       PRES   REMARKS
MONTEVIDEO     PTSUNNY   70  70 100 S3        29.83F FOG
GRANITE FALLS  LGT RAIN  68  68 100 NE5       29.84F
CANBY          CLOUDY    69  68  95 CALM      29.86R
MARSHALL       CLOUDY    70  66  88 SE7       29.81F
REDWOOD FALLS  LGT RAIN  70  69  97 W6        29.86S FOG
OLIVIA         PTSUNNY   70  68  94 S3        29.84R FOG
PIPESTONE      LGT RAIN  70  68  94 CALM      29.86R
WINDOM         CLOUDY    73  70  88 CALM      29.85R
WORTHINGTON    PTSUNNY   73  70  88 W5        29.89R
JACKSON        PTSUNNY   72  68  88 NE9       29.82F
TRACY          RAIN      71  69  93 CALM      29.86F
SLAYTON        PTSUNNY   70  69  96 CALM      29.90R FOG
$$
MNZ065>067-074>077-082>085-091>093-261500-
   South Central Minnesota

CITY           SKY/WX    TMP DP  RH WIND       PRES   REMARKS
MANKATO        CLOUDY    72  66  83 E3        29.81F
NEW ULM        CLOUDY    70  70 100 N6        29.85R FOG
ST JAMES       CLOUDY    72  70  94 SE3       29.83R FOG
FAIRMONT       CLOUDY    73  61  64 S7        29.84R
GLENCOE        PTSUNNY   74  65  74 CALM      29.83S
FARIBAULT      CLOUDY    75  68  78 CALM      29.82F HAZE
OWATONNA       CLOUDY    73  70  88 CALM      29.82F FOG
WASECA         CLOUDY    72  68  88 E8        29.80F FOG
ALBERT LEA     CLOUDY    72  72 100 E3        29.83F FOG
$$
MNZ078>079-086>088-094>096-261500-
   Southeast Minnesota

CITY           SKY/WX    TMP DP  RH WIND       PRES   REMARKS
ROCHESTER      CLOUDY    71  69  93 SW7       29.87F FOG
RED WING       CLOUDY    75  70  83 CALM      29.82F
STANTON        PTSUNNY   74  70  87 SW3       29.83F FOG
DODGE CENTER   CLOUDY    72  72 100 SW5       29.85F FOG
WINONA         CLOUDY    70  66  88 CALM      29.85S
AUSTIN         CLOUDY    72  70  94 SW3       29.86F FOG
PRESTON        FOG       67  67 100 SW6       29.89S VSB 3/4
$$
ABBREVIATIONS USED IN REMARKS
   TC - TEMPERATURES IN CELSIUS
  WCI - WIND CHILL INDEX
   HX - HEAT INDEX
  VSB - VISIBILITY
$$



USA.gov is the U.S. government's official web portal to all federal, state and local government web resources and services.